KB3YTV Weather Reports


time (UTC)temp
C
wind
direction
speed
KPH
gust
KPH
rain 1hr
cm
rain 24hr
cm
rain mn
cm
humidity
%
barometer
mb
20260510020032 10 0 0.0 0.0 0.00 0.56 0.56 91 1010.2
20260510014536 10 0 0.0 0.0 0.00 0.56 0.56 91 1010.0
20260510013036 10 0 0.0 0.0 0.00 0.56 0.56 90 1009.9
20260510011538 11 0 0.0 1.6 0.00 0.56 0.56 89 1009.7
20260510010041 11 0 0.0 0.0 0.00 0.56 0.56 88 1009.5
20260510004534 12 0 0.0 0.0 0.00 0.56 0.56 86 1009.5
20260510003035 13 0 0.0 1.6 0.00 0.56 0.56 83 1009.4
20260510001536 14 0 0.0 0.0 0.00 0.56 0.56 79 1009.2
20260510000043 15 0 0.0 0.0 0.00 0.56 0.56 77 1009.1
20260509234553 15 0 0.0 0.0 0.00 0.56 0.56 76 1009.0
20260509233042 15 0 0.0 1.6 0.00 0.56 0.56 75 1009.0
20260509231536 16 0 0.0 3.2 0.00 0.56 0.56 74 1008.9
20260509230034 16 0 0.0 3.2 0.00 0.56 0.56 74 1008.9
20260509224533 16 188 0.0 3.2 0.00 0.56 0.56 72 1008.8
20260509223031 16 278 0.0 3.2 0.00 0.56 0.56 73 1008.8
20260509221557 15 0 0.0 3.2 0.00 0.56 0.56 75 1008.7
20260509220032 16 253 0.0 4.8 0.00 0.56 0.56 74 1009.0
20260509214535 15 0 0.0 4.8 0.00 0.56 0.56 77 1009.3
20260509213034 15 240 1.6 3.2 0.00 0.56 0.56 79 1009.4
20260509211534 15 0 0.0 0.0 0.00 0.56 0.56 81 1009.5
20260509210034 14 0 0.0 0.0 0.00 0.56 0.56 82 1009.7
20260509204533 14 0 1.6 1.6 0.00 0.56 0.56 82 1009.8
20260509203036 13 0 0.0 0.0 0.00 0.56 0.56 82 1009.7
20260509201532 13 0 0.0 3.2 0.00 0.56 0.56 82 1009.8
20260509200036 14 324 1.6 4.8 0.00 0.56 0.56 81 1010.0
20260509194534 14 307 1.6 4.8 0.00 0.56 0.56 81 1010.1
20260509193039 14 320 1.6 4.8 0.00 0.56 0.56 82 1010.4
20260509191531 13 283 1.6 6.4 0.00 0.56 0.56 84 1010.6
20260509190042 13 247 1.6 6.4 0.00 0.56 0.56 84 1010.7
20260509184536 13 93 0.0 3.2 0.03 0.56 0.56 87 1010.5
20260509183041 12 125 0.0 1.6 0.03 0.56 0.56 89 1010.7
20260509181534 12 118 0.0 1.6 0.03 0.56 0.56 90 1010.8
20260509180033 12 0 0.0 1.6 0.03 0.53 0.53 89 1011.1
20260509174532 12 0 0.0 1.6 0.05 0.53 0.53 89 1010.9
20260509173050 12 0 0.0 3.2 0.10 0.53 0.53 90 1011.2
20260509171543 11 0 0.0 3.2 0.13 0.53 0.53 90 1011.0
20260509170041 11 119 0.0 1.6 0.18 0.51 0.51 90 1011.0
20260509164536 11 0 0.0 3.2 0.30 0.48 0.48 89 1010.8
20260509163031 11 82 1.6 3.2 0.30 0.43 0.43 89 1010.9
20260509161535 11 10 0.0 1.6 0.30 0.41 0.41 89 1011.1
20260509160034 11 0 0.0 3.2 0.23 0.30 0.30 88 1011.9
20260509154543 12 243 0.0 4.8 0.15 0.18 0.18 86 1012.1
20260509153043 12 253 0.0 4.8 0.13 0.13 0.13 85 1012.1
20260509151540 12 0 0.0 4.8 0.10 0.10 0.10 86 1011.9
20260509150040 12 0 0.0 1.6 0.08 0.08 0.08 84 1011.9
20260509144539 12 0 0.0 0.0 0.03 0.03 0.03 82 1011.7
20260509143035 12 323 0.0 0.0 0.00 0.00 0.00 82 1011.6
20260509141547 12 0 0.0 1.6 0.00 0.00 0.00 82 1011.3
20260509140041 12 314 0.0 3.2 0.00 0.00 0.00 82 1011.2
20260509134552 12 87 1.6 3.2 0.00 0.00 0.00 82 1011.0
20260509133043 12 117 0.0 6.4 0.00 0.00 0.00 84 1011.2
20260509131551 11 90 1.6 3.2 0.00 0.00 0.00 82 1011.0
20260509130045 11 82 1.6 3.2 0.00 0.00 0.00 82 1011.1
20260509124542 11 0 0.0 3.2 0.00 0.00 0.00 82 1011.2
20260509123045 11 85 0.0 3.2 0.00 0.00 0.00 81 1010.9
20260509121534 11 117 1.6 9.7 0.00 0.00 0.00 80 1010.9
20260509120034 11 89 1.6 8.0 0.00 0.00 0.00 80 1010.8
20260509114534 11 82 4.8 6.4 0.00 0.00 0.00 79 1010.8
20260509113034 11 121 1.6 3.2 0.00 0.00 0.00 79 1010.8
20260509111532 11 97 1.6 6.4 0.00 0.00 0.00 78 1010.9
20260509110034 11 94 0.0 4.8 0.00 0.00 0.00 80 1010.9
20260509104544 11 0 0.0 1.6 0.00 0.00 0.00 79 1010.9
20260509103034 10 0 0.0 6.4 0.00 0.00 0.00 78 1010.7
20260509101535 10 83 3.2 6.4 0.00 0.00 0.00 80 1010.2
20260509100037 10 97 1.6 3.2 0.00 0.00 0.00 80 1010.5
20260509094534 10 116 0.0 4.8 0.00 0.00 0.00 81 1010.6
20260509093035 10 91 0.0 4.8 0.00 0.00 0.00 82 1010.4
20260509091534 10 73 1.6 6.4 0.00 0.00 0.00 81 1010.7
20260509090040 10 92 1.6 4.8 0.00 0.00 0.00 83 1010.8
20260509084537 10 98 0.0 4.8 0.00 0.00 0.00 82 1010.9
20260509083043 10 85 0.0 1.6 0.00 0.00 0.00 82 1010.9
20260509081542 10 0 0.0 1.6 0.00 0.00 0.00 83 1011.1
20260509080032 9 0 0.0 3.2 0.00 0.00 0.00 84 1011.0
20260509074536 9 94 3.2 4.8 0.00 0.00 0.00 85 1011.1
20260509073035 9 0 0.0 1.6 0.00 0.00 0.00 83 1011.3
20260509071536 10 0 0.0 0.0 0.00 0.00 0.00 81 1011.2
20260509070034 10 0 0.0 1.6 0.00 0.00 0.00 81 1011.2
20260509064532 10 89 0.0 1.6 0.00 0.00 0.00 81 1011.3
20260509063034 11 108 0.0 3.2 0.00 0.00 0.00 80 1011.3
20260509061537 11 94 0.0 3.2 0.00 0.00 0.00 80 1011.6
20260509060035 11 99 0.0 1.6 0.00 0.00 0.00 80 1011.8
20260509054542 11 98 1.6 1.6 0.00 0.00 0.00 79 1011.8
20260509053110 11 118 0.0 1.6 0.00 0.00 0.00 79 1011.9
20260509051542 11 101 1.6 3.2 0.00 0.00 0.00 79 1012.0
20260509050043 11 96 0.0 1.6 0.00 0.00 0.00 78 1011.9
20260509044537 11 94 3.2 6.4 0.00 0.00 0.00 77 1011.7
20260509043036 12 87 4.8 8.0 0.00 0.00 0.00 77 1011.9
20260509041533 12 34 3.2 6.4 0.00 0.00 0.00 77 1012.2
20260509040033 12 82 3.2 6.4 0.00 0.00 0.00 74 1012.5
20260509034542 12 72 1.6 1.6 0.00 0.00 0.00 74 1012.3
20260509033033 12 0 0.0 4.8 0.00 0.00 0.00 72 1012.5
20260509031537 12 184 1.6 4.8 0.00 0.00 0.00 74 1012.8
20260509030037 12 0 0.0 1.6 0.00 0.00 0.00 74 1011.7
20260509024534 12 0 0.0 0.0 0.00 0.00 0.00 73 1012.1
20260509023042 12 0 0.0 0.0 0.00 0.00 0.00 73 1012.1
20260509021532 12 0 0.0 0.0 0.00 0.00 0.00 73 1012.0